sat.trackr.live / text

‹ back to catalog

STARLINK-30105

NORAD 57433 · 2023-105D

PAYLOAD ACTIVE UNKNOWN

§ Identity

Operator
Country
US
Launch date
2023-07-24
Launch site
AFETR
Launch vehicle
Mass (kg)
RCS (m²)

Purposes: comms

External: N2YO · Heavens-Above · Gunter

§ Orbital elements

Epoch: 2026-05-25T04:18:49.643136Z

Period
94.27 min
Inclination
43.0030°
Eccentricity
0.0001574
Mean motion
15.27554828 rev/d
Perigee alt
482.0 km
Apogee alt
484.2 km
Semi-major
6,861.3 km
B*
-7.6735e-5
RAAN
318.8588°
Arg perigee
267.4855°
Mean anomaly
92.5817°
Rev number
16,002

§ Raw data

STARLINK-301051 57433U 23105D   26145.17974124 -.00002371  00000+0 -76735-4 0  99922 57433  43.0030 318.8588 0001574 267.4855  92.5817 15.27554828160027

JSON: /api/v1/satellites/57433 · /tle

For live sub-satellite position, see the globe view (requires WebGL).

§ Visibility from observer

Set your observer location to see the next 7 days of passes ≥ 10°. The values pass through the URL so the page stays shareable.

No JS? Fill the form by hand. The geolocation button needs JavaScript.